When you browse on this site, cookies collect data to enhance your experience and personalize the content and advertising you see.
Visit our Privacy Policy to learn more. By continuing to use the site, you agree to this use of cookies and data.
  • Em Portugal
  • Lista de países
  • Para 7 dias
  • Temperatura da água
  • Mapa do tempo
  • Widgets de tempo
  • user-avatar
    Iniciar Sessão

    Previsão horária em Marin

    Hoje, 14 Novembro, Quinta-feira

    Tempo Temperatura Precipitação Vento Pressão Humidade
    00:00 +7°C° 0.7 mm 8 m/s 750 mmHg 89%
    01:00 +6°C° 0.7 mm 7 m/s 749 mmHg 90%
    02:00 +7°C° 0.7 mm 6 m/s 749 mmHg 91%
    03:00 +5°C° 0.4 mm 6 m/s 749 mmHg 90%
    04:00 +5°C° 0.4 mm 7 m/s 749 mmHg 90%
    05:00 +5°C° 0 mm 7 m/s 748 mmHg 89%
    06:00 +6°C° 0.6 mm 7 m/s 747 mmHg 88%
    07:00 +6°C° 0.6 mm 8 m/s 747 mmHg 87%
    08:00 +7°C° 0.6 mm 9 m/s 747 mmHg 86%
    09:00 +7°C° 1.7 mm 10 m/s 746 mmHg 87%
    10:00 +7°C° 1.7 mm 10 m/s 746 mmHg 88%
    11:00 +7°C° 1.7 mm 11 m/s 745 mmHg 89%
    12:00 +7°C° 0.8 mm 11 m/s 746 mmHg 88%
    13:00 +7°C° 0.8 mm 10 m/s 746 mmHg 87%
    14:00 +7°C° 0.8 mm 10 m/s 747 mmHg 86%
    15:00 +7°C° 0.1 mm 9 m/s 747 mmHg 86%
    16:00 +6°C° 0.1 mm 9 m/s 747 mmHg 85%
    17:00 +6°C° 0.1 mm 8 m/s 748 mmHg 84%
    18:00 +6°C° 0.1 mm 7 m/s 748 mmHg 85%
    19:00 +5°C° 0.1 mm 7 m/s 749 mmHg 86%
    20:00 +5°C° 0.1 mm 6 m/s 749 mmHg 86%
    21:00 +4°C° 0.2 mm 6 m/s 749 mmHg 87%
    22:00 +4°C° 0.2 mm 6 m/s 750 mmHg 88%
    23:00 +5°C° 0.2 mm 5 m/s 750 mmHg 88%

    Amanhã, 15 Novembro, Sexta-feira

    Tempo Temperatura Precipitação Vento Pressão Humidade
    00:00 +3°C° 0.1 mm 5 m/s 750 mmHg 89%
    01:00 +3°C° 0.1 mm 5 m/s 750 mmHg 90%
    02:00 +3°C° 0.1 mm 5 m/s 750 mmHg 90%
    03:00 +3°C° 0.1 mm 5 m/s 750 mmHg 90%
    04:00 +3°C° 0.1 mm 5 m/s 750 mmHg 91%
    05:00 +3°C° 0.1 mm 5 m/s 750 mmHg 91%
    06:00 +5°C° 0.1 mm 5 m/s 751 mmHg 89%
    07:00 +5°C° 0.1 mm 5 m/s 751 mmHg 87%
    08:00 +6°C° 0.1 mm 5 m/s 751 mmHg 85%
    09:00 +7°C° 0.1 mm 5 m/s 751 mmHg 79%
    10:00 +8°C° 0.1 mm 6 m/s 751 mmHg 73%
    11:00 +9°C° 0.1 mm 6 m/s 751 mmHg 67%
    12:00 +8°C° 0.2 mm 6 m/s 751 mmHg 69%
    13:00 +8°C° 0.2 mm 6 m/s 751 mmHg 71%
    14:00 +8°C° 0.2 mm 6 m/s 750 mmHg 73%
    15:00 +7°C° 0.1 mm 6 m/s 751 mmHg 78%
    16:00 +6°C° 0.1 mm 5 m/s 751 mmHg 84%
    17:00 +5°C° 0.1 mm 5 m/s 751 mmHg 89%
    18:00 +4°C° 0.1 mm 4 m/s 752 mmHg 90%
    19:00 +4°C° 0.1 mm 4 m/s 752 mmHg 90%
    20:00 +4°C° 0.1 mm 4 m/s 753 mmHg 91%
    21:00 +4°C° 0 mm 4 m/s 753 mmHg 92%
    22:00 +4°C° 0 mm 3 m/s 753 mmHg 93%
    23:00 +4°C° 0 mm 3 m/s 753 mmHg 93%

    Depois de amanhã, 16 Novembro, Sábado

    Tempo Temperatura Precipitação Vento Pressão Humidade
    00:00 +4°C° 0 mm 3 m/s 753 mmHg 94%
    01:00 +5°C° 0 mm 2 m/s 754 mmHg 94%
    02:00 +4°C° 0 mm 2 m/s 754 mmHg 95%
    03:00 +5°C° 0 mm 2 m/s 754 mmHg 95%
    04:00 +5°C° 0 mm 2 m/s 754 mmHg 95%
    05:00 +6°C° 0 mm 1 m/s 754 mmHg 94%
    06:00 +7°C° 0 mm 1 m/s 755 mmHg 93%
    07:00 +8°C° 0 mm 1 m/s 755 mmHg 91%
    08:00 +8°C° 0 mm 1 m/s 755 mmHg 90%
    09:00 +10°C° 0.1 mm 1 m/s 756 mmHg 83%
    10:00 +11°C° 0.1 mm 1 m/s 756 mmHg 77%
    11:00 +12°C° 0.1 mm 1 m/s 756 mmHg 70%
    12:00 +12°C° 0.1 mm 2 m/s 755 mmHg 72%
    13:00 +12°C° 0.1 mm 2 m/s 755 mmHg 74%
    14:00 +11°C° 0.1 mm 3 m/s 755 mmHg 76%
    15:00 +9°C° 0.1 mm 2 m/s 755 mmHg 80%
    16:00 +8°C° 0.1 mm 2 m/s 755 mmHg 84%
    17:00 +7°C° 0.1 mm 2 m/s 755 mmHg 88%
    18:00 +7°C° 0 mm 2 m/s 755 mmHg 88%
    19:00 +8°C° 0 mm 2 m/s 755 mmHg 88%
    20:00 +8°C° 0 mm 3 m/s 754 mmHg 88%
    21:00 +8°C° 0.2 mm 3 m/s 754 mmHg 89%
    22:00 +8°C° 0.2 mm 3 m/s 754 mmHg 90%
    23:00 +8°C° 0.2 mm 3 m/s 753 mmHg 91%

    17 Novembro, Domingo

    Tempo Temperatura Precipitação Vento Pressão Humidade
    00:00 +8°C° 0.3 mm 3 m/s 753 mmHg 92%
    01:00 +8°C° 0.3 mm 3 m/s 753 mmHg 93%
    02:00 +8°C° 0.3 mm 2 m/s 752 mmHg 94%
    03:00 +8°C° 0.1 mm 3 m/s 752 mmHg 95%
    04:00 +8°C° 0.1 mm 3 m/s 752 mmHg 95%
    05:00 +8°C° 0.1 mm 3 m/s 752 mmHg 96%
    06:00 +9°C° 0.1 mm 3 m/s 752 mmHg 95%
    07:00 +9°C° 0.1 mm 3 m/s 753 mmHg 95%
    08:00 +10°C° 0.1 mm 3 m/s 753 mmHg 94%
    09:00 +10°C° 0.1 mm 4 m/s 753 mmHg 90%
    10:00 +11°C° 0.1 mm 4 m/s 753 mmHg 87%
    11:00 +10°C° 0.1 mm 5 m/s 753 mmHg 83%
    12:00 +10°C° 0.1 mm 5 m/s 753 mmHg 83%
    13:00 +11°C° 0.1 mm 4 m/s 753 mmHg 83%
    14:00 +11°C° 0.1 mm 4 m/s 753 mmHg 83%
    15:00 +10°C° 0.1 mm 4 m/s 753 mmHg 86%
    16:00 +9°C° 0.1 mm 3 m/s 754 mmHg 90%
    17:00 +8°C° 0.1 mm 3 m/s 754 mmHg 93%
    18:00 +8°C° 0.1 mm 3 m/s 754 mmHg 94%
    19:00 +8°C° 0.1 mm 2 m/s 754 mmHg 94%
    20:00 +8°C° 0.1 mm 2 m/s 755 mmHg 94%
    21:00 +8°C° 0 mm 2 m/s 755 mmHg 94%
    22:00 +7°C° 0 mm 2 m/s 755 mmHg 94%
    23:00 +8°C° 0 mm 1 m/s 755 mmHg 94%

    18 Novembro, Segunda-feira

    Tempo Temperatura Precipitação Vento Pressão Humidade
    00:00 +8°C° 0.1 mm 1 m/s 755 mmHg 94%
    01:00 +8°C° 0.1 mm 1 m/s 755 mmHg 94%
    02:00 +8°C° 0.1 mm 1 m/s 755 mmHg 93%
    03:00 +8°C° 0 mm 1 m/s 755 mmHg 94%
    04:00 +7°C° 0 mm 1 m/s 755 mmHg 94%
    05:00 +7°C° 0 mm 1 m/s 755 mmHg 95%
    06:00 +8°C° 0 mm 1 m/s 755 mmHg 93%
    07:00 +8°C° 0 mm 1 m/s 756 mmHg 91%
    08:00 +9°C° 0 mm 1 m/s 756 mmHg 90%
    09:00 +11°C° 0 mm 1 m/s 756 mmHg 82%
    10:00 +11°C° 0 mm 0 m/s 756 mmHg 74%
    11:00 +13°C° 0 mm 0 m/s 756 mmHg 66%
    12:00 +14°C° 0 mm 1 m/s 755 mmHg 64%
    13:00 +13°C° 0 mm 1 m/s 755 mmHg 63%
    14:00 +13°C° 0 mm 1 m/s 755 mmHg 61%
    15:00 +12°C° 0 mm 1 m/s 755 mmHg 68%
    16:00 +10°C° 0 mm 1 m/s 755 mmHg 75%
    17:00 +9°C° 0 mm 1 m/s 755 mmHg 83%
    18:00 +8°C° 0 mm 1 m/s 755 mmHg 82%
    19:00 +7°C° 0 mm 2 m/s 755 mmHg 80%
    20:00 +7°C° 0 mm 2 m/s 755 mmHg 79%
    21:00 +7°C° 0 mm 3 m/s 754 mmHg 79%
    22:00 +8°C° 0 mm 3 m/s 754 mmHg 79%
    23:00 +7°C° 0 mm 4 m/s 754 mmHg 79%

    19 Novembro, Terça-feira

    Tempo Temperatura Precipitação Vento Pressão Humidade
    00:00 +7°C° 1 mm 4 m/s 753 mmHg 83%
    01:00 +7°C° 1 mm 5 m/s 752 mmHg 87%
    02:00 +7°C° 1 mm 5 m/s 752 mmHg 91%
    03:00 +7°C° 2.3 mm 5 m/s 752 mmHg 93%
    04:00 +7°C° 2.3 mm 5 m/s 751 mmHg 94%
    05:00 +7°C° 2.3 mm 5 m/s 751 mmHg 96%
    06:00 +7°C° 0.4 mm 5 m/s 751 mmHg 96%
    07:00 +8°C° 0.4 mm 4 m/s 751 mmHg 95%
    08:00 +8°C° 0.4 mm 4 m/s 751 mmHg 95%
    09:00 +8°C° 0.1 mm 4 m/s 750 mmHg 94%
    10:00 +10°C° 0.1 mm 4 m/s 750 mmHg 94%
    11:00 +10°C° 0.1 mm 4 m/s 750 mmHg 93%
    12:00 +10°C° 0.2 mm 4 m/s 749 mmHg 93%
    13:00 +11°C° 0.2 mm 3 m/s 749 mmHg 93%
    14:00 +11°C° 0.2 mm 3 m/s 748 mmHg 93%
    15:00 +11°C° 0.2 mm 3 m/s 748 mmHg 93%
    16:00 +10°C° 0.2 mm 4 m/s 748 mmHg 94%
    17:00 +10°C° 0.2 mm 4 m/s 748 mmHg 94%
    18:00 +10°C° 0.2 mm 4 m/s 748 mmHg 92%
    19:00 +9°C° 0.2 mm 5 m/s 748 mmHg 91%
    20:00 +9°C° 0.2 mm 5 m/s 748 mmHg 90%
    21:00 +10°C° 0.2 mm 6 m/s 747 mmHg 91%
    22:00 +10°C° 0.2 mm 6 m/s 747 mmHg 91%
    23:00 +10°C° 0.2 mm 6 m/s 746 mmHg 92%
    Mostrar mais